Hourly Data Report for October 29, 2014

All times are specified in Local Standard Time (LST). Add 1 hour to adjust for Daylight Saving Time where and when it is observed.

KAMLOOPS A
BRITISH COLUMBIA

50°42'09.000" N
120°26'55.000" W
345.30 m
1163781
71887
YKA

Download Data

Hourly Data (October 2014)
Hourly Data Report for October 29, 2014
Temp Definition
°C
Dew Point Temp Definition
°C
Rel Hum Definition
%
Wind Dir Definition
10's deg

Wind Spd Definition
km/h
Visibility Definition
km
Stn Press Definition
kPa
Hmdx Definition


Wind Chill Definition


Weather Definition


TIME
00:00 Legend Double Dagger 8.2 4.1 75 11 27 64.4 97.10     LegendNANA
01:00 Legend Double Dagger 7.8 4.2 78 9 21 64.4 97.13     Mostly Cloudy
02:00 Legend Double Dagger 7.8 4.2 78 12 15 64.4 97.23     LegendNANA
03:00 Legend Double Dagger 7.6 4.2 79 11 13 64.4 97.23     LegendNANA
04:00 Legend Double Dagger 7.8 4.2 78 13 15 64.4 97.28     Mostly Cloudy
05:00 Legend Double Dagger 7.8 4.2 78 13 18 64.4 97.35     LegendNANA
06:00 Legend Double Dagger 7.4 4.5 82 10 10 64.4 97.44     LegendNANA
07:00 Legend Double Dagger 7.0 5.3 89 10 9 48.3 97.49     Rain
08:00 Legend Double Dagger 8.0 5.7 85 11 18 32.2 97.56     Rain
09:00 Legend Double Dagger 8.5 6.0 84 12 12 32.2 97.61     Rain
10:00 Legend Double Dagger 8.9 5.7 80 12 10 64.4 97.67     Mostly Cloudy
11:00 Legend Double Dagger 10.1 6.1 76 13 10 64.4 97.71     LegendNANA
12:00 Legend Double Dagger 11.7 6.5 70 12 15 64.4 97.70     LegendNANA
13:00 Legend Double Dagger 12.0 6.5 69 11 17 64.4 97.70     Mostly Cloudy
14:00 Legend Double Dagger 12.4 6.9 69 12 26 64.4 97.69     LegendNANA
15:00 Legend Double Dagger 12.6 6.7 67 12 22 64.4 97.72     LegendNANA
16:00 Legend Double Dagger 11.7 6.2 69 12 29 64.4 97.73     Mostly Cloudy
17:00 Legend Double Dagger 10.7 6.3 74 11 28 64.4 97.78     LegendNANA
18:00 Legend Double Dagger 10.1 6.3 77 11 24 64.4 97.82     LegendNANA
19:00 Legend Double Dagger 9.4 6.0 79 11 22 64.4 97.85     Mainly Clear
20:00 Legend Double Dagger 8.9 6.2 83 11 27 64.4 97.87     LegendNANA
21:00 Legend Double Dagger 8.5 6.0 84 10 25 64.4 97.92     LegendNANA
22:00 Legend Double Dagger 8.2 5.7 84 10 25 64.4 97.92     Mainly Clear
23:00 Legend Double Dagger 7.7 5.5 86 8 16 64.4 97.95     LegendNANA

Notes on Data Quality.

Legend

  • E = Estimated
  • M = Missing
  • NA = Not Available
  • ‡ = Partner data that is not subject to review by the National Climate Archives
Date modified: